#timestamp,LO_Frequency,Hit 
1503349215.2,286047005.3,N
1503349235.0,286047009.0,N
1503349235.9,286047009.0,N
1503349255.8,286047006.2,N
1503349275.6,286047008.7,N
1503349295.4,286047008.4,N
1503349315.2,286047007.4,N
1503349335.1,286047007.6,N
1503349336.0,286047007.6,N
1503349355.8,286047007.2,N
1503349375.6,286047006.0,N
1503349395.5,286047007.0,N
1503349415.3,286047007.6,N
1503349435.1,286047007.4,N
1503349455.9,286047009.2,N
1503349475.7,286047009.1,P
1503349495.5,286047003.3,N
1503349515.4,286047005.6,N
1503349535.2,286047004.9,N
1503349555.0,286047005.5,N
1503349556.0,286047005.5,P
1503349575.8,286047000.3,P
1503349595.6,286047003.9,N
1503349615.4,286047002.7,N
1503349635.3,286047002.4,N
1503349655.1,286047001.1,N
1503349675.8,286046999.2,N
1503349695.7,286046997.2,N
1503349715.5,286046996.8,N
1503349735.3,286046996.6,N
1503349755.2,286046995.0,N
1503349775.9,286046997.3,N
1503349795.7,286046998.5,N
1503349815.6,286047000.6,N
1503349835.4,286047001.9,N
1503349855.2,286047002.8,N
1503349875.1,286047000.2,N
1503349876.0,286047000.2,N
1503349895.8,286047000.0,N
1503349915.6,286047000.0,N
1503349935.4,286047001.5,N
1503349955.3,286047004.3,N
1503349975.1,286047005.5,N
1503349995.8,286047003.6,N
1503350015.7,286047003.5,N
1503350035.5,286047005.8,N
1503350055.3,286047003.5,N
1503350075.2,286046999.7,N
1503350095.9,286047000.4,N
1503350115.7,286047003.0,N
1503350135.6,286047007.6,N
1503350155.4,286047007.6,N
1503350175.2,286047000.3,N
1503350195.1,286046998.9,N
1503350196.0,286046998.9,N
1503350215.8,286046996.6,N
1503350235.6,286046997.1,N
1503350255.5,286046997.8,N
1503350275.3,286046995.7,N
1503350295.1,286046995.3,N
1503350315.8,286046997.0,N
1503350335.7,286046999.5,N
1503350355.5,286047000.8,N
1503350375.3,286047001.7,N
1503350395.2,286047000.6,N
1503350415.0,286046999.1,N
1503350415.9,286046999.1,N
1503350435.7,286046996.7,N
1503350455.6,286046997.6,N
1503350475.4,286046996.2,N
1503350495.2,286046993.8,N
1503350515.1,286046997.5,N
1503350516.0,286046997.5,N
1503350535.8,286046997.4,N
1503350555.6,286046998.0,N
1503350575.5,286046995.8,N
1503350595.3,286046996.0,N
1503350615.1,286046997.2,N
1503350635.9,286046997.5,N
1503350655.7,286046995.1,N
1503350675.5,286046996.1,N
1503350695.3,286046993.7,N
1503350715.2,286046993.8,P
1503350735.0,286046999.4,N
1503350735.9,286046999.4,N
1503350755.8,286046999.4,N
1503350775.6,286046996.8,N
1503350795.4,286046994.9,N
1503350815.2,286046995.9,N
1503350835.1,286046996.0,N
1503350836.0,286046996.0,N
1503350855.8,286046996.7,N
1503350875.6,286046998.6,N
1503350895.5,286047000.4,N
1503350915.3,286047001.2,N
1503350935.1,286047000.8,N
1503350955.9,286047002.7,N
1503350975.7,286047002.5,N
1503350995.5,286047004.3,N
1503351015.4,286047001.6,N
1503351035.2,286047005.5,N
1503351055.0,286047004.3,N
1503351055.9,286047004.3,N
1503351075.8,286047001.4,N
1503351095.6,286047002.0,N
1503351115.4,286047004.9,N
1503351135.3,286047009.6,N
1503351155.1,286047008.5,N
1503351156.0,286047008.5,N
1503351175.8,286047005.1,N
1503351195.6,286047003.4,N
1503351215.5,286047001.3,N
1503351235.3,286047002.3,N
1503351255.1,286047002.2,N
1503351275.9,286047002.3,N
1503351295.7,286047001.5,N
1503351315.5,286047005.9,N
1503351335.4,286047006.4,N
1503351355.2,286047005.7,N
1503351375.0,286047007.0,N
1503351375.9,286047007.0,N
1503351395.8,286047003.4,N
1503351415.6,286047001.9,N
1503351435.4,286047005.6,N
1503351455.3,286047008.9,P
1503351475.1,286047006.3,N
1503351476.0,286047006.3,P
1503351495.8,286047007.1,P
1503351515.7,286046998.7,P
1503351535.5,286046997.4,N
1503351555.3,286046998.6,N
1503351575.2,286046994.9,N
1503351595.9,286046996.8,N
1503351615.7,286046995.1,N
1503351635.6,286046997.2,N
1503351655.4,286047000.7,N
1503351675.2,286046998.8,N
1503351695.1,286046997.5,N
1503351696.0,286046997.5,N
1503351715.8,286046996.2,N
1503351735.6,286046997.3,N
1503351755.4,286046996.7,N
1503351775.3,286046993.5,N
1503351795.1,286046993.5,N
1503351815.8,286046994.5,N
1503351835.7,286046997.6,N
1503351855.5,286046997.2,N
1503351875.3,286046997.6,N
1503351895.2,286046998.0,N
1503351915.9,286046996.1,N
1503351935.7,286046993.7,N
1503351955.6,286046997.6,N
1503351975.4,286046997.1,N
1503351995.2,286047002.6,N
1503352015.1,286047000.2,N
1503352016.0,286047000.2,N
1503352035.8,286047000.9,N
1503352055.6,286047000.9,N
1503352075.4,286047002.1,N
1503352095.3,286047001.7,N
1503352115.1,286047000.3,N
1503352135.8,286046997.3,N
1503352155.7,286046997.3,N
1503352175.5,286046999.1,N
1503352195.3,286046997.1,N
1503352215.2,286047001.2,N
1503352235.9,286047002.3,N
1503352255.7,286047000.5,N
1503352275.6,286046997.3,N
1503352295.4,286046993.4,N
1503352315.2,286046994.4,N
1503352335.1,286046990.3,P
1503352336.0,286046990.3,N
1503352355.8,286046992.3,N
1503352375.6,286046992.4,N
1503352395.5,286046996.8,N
1503352415.3,286046998.0,N
1503352435.1,286046996.0,N
1503352455.9,286046994.5,N
1503352475.7,286046992.3,N
1503352495.5,286046994.8,N
1503352515.4,286046994.5,N
1503352535.2,286046996.1,N
1503352555.0,286046995.8,N
1503352555.9,286046995.8,N
1503352575.8,286046993.8,N
1503352595.6,286046994.8,N
1503352615.4,286046990.5,P
1503352635.3,286046997.5,N
1503352655.1,286046999.4,N
1503352656.0,286046999.4,N
1503352675.8,286046998.5,N
1503352695.7,286046998.2,N
1503352715.5,286047001.2,N
1503352735.3,286047000.2,N
1503352755.1,286047003.5,N
1503352775.9,286047004.1,N
1503352795.7,286047002.0,N
